Retour au catalogue

ONEWEB-0663

ActifCommunicationsPO
NORAD 55823·PAYLOAD·🇬🇧 United Kingdom

Lancé Mar 9, 2023 depuis Cape Canaveral Space Force Station

Loading…

Prochains Passages (prochaines 24 heures)

TLE

FraisSource: CelesTrak SupGP

Époque: Sep 14, 2026, 15:15 UTC

1 55823C 23029AD  26257.63590278 -.00001583  00000+0 -38928-2 0  2578
2 55823  87.9138 256.6577 0002158  78.4424 336.7767 13.20874438    14

Suivez ONEWEB-0663 en temps réel avec AllMySat

Download on the App Store